Benton Harbor, MI

7:05 PM EST on January 23, 2018 (GMT -0500)
Southwest Michigan Regional

Weather History for KBEH - March, 2013

Change the Weather History Date:

Friday, March 29, 2013

  Actual Average Record
Temperature  
Mean Temperature 34 °F -  
Max Temperature 46 °F 51 °F 81 °F (1963)
Min Temperature 21 °F 33 °F 13 °F (1970)
Degree Days  
Heating Degree Days 32    
Moisture  
Dew Point 21 °F    
Average Humidity 65    
Maximum Humidity 92    
Minimum Humidity 31    
Precipitation  
Precipitation 0.00 in - - ()
Sea Level Pressure  
Sea Level Pressure 30.31 in    
Wind  
Wind Speed 2 mph (West)    
Max Wind Speed 12 mph    
Max Gust Speed -    
Visibility 9 miles    
Events      
Averages and records for this station are not official NWS values.
T = Trace of Precipitation, MM = Missing Value Source: NWS Daily Summary

Daily Weather History Graph

Daily Weather History Graph

Search for Another Location

Airport or City:

Trip Planner

Search our weather history database for the weather conditions in past years. The results will help you decide how hot, cold, wet, or windy it might be!

Date:

Astronomy

Mar. 29, 2013 Rise Set
Actual Time 7:33 AM EDT 8:08 PM EDT
Civil Twilight 7:04 AM EDT 8:36 PM EDT
Nautical Twilight 6:31 AM EDT 9:09 PM EDT
Astronomical Twilight 5:57 AM EDT 9:44 PM EDT
Moon 11:11 PM EDT (3/29) 8:38 AM EDT (3/29)
Length of Visible Light 13h 31m
Length of Day
12h 35m
Waning Gibbous, 93% of the Moon is Illuminated
Mar 29
Waning Gibbous
Apr 3
Last Quarter
Apr 10
New
Apr 18
First Quarter
Apr 25
Full

Hourly Weather History & Observations

Time (EDT) Temp. Windchill Dew Point Humidity Pressure Visibility Wind Dir Wind Speed Gust Speed Precip Events Conditions
12:53 AM 26.1 °F - 24.1 °F 92% 30.32 in 10.0 mi Calm Calm - N/A   Clear
1:53 AM 27.0 °F - 24.1 °F 89% 30.33 in 9.0 mi Calm Calm - N/A   Clear
2:53 AM 25.0 °F - 23.0 °F 92% 30.33 in 9.0 mi Calm Calm - N/A   Clear
3:53 AM 24.1 °F - 21.9 °F 91% 30.33 in 8.0 mi Calm Calm - N/A   Clear
4:53 AM 23.0 °F - 21.0 °F 92% 30.32 in 9.0 mi Calm Calm - N/A   Clear
5:53 AM 21.9 °F - 19.9 °F 92% 30.32 in 8.0 mi Calm Calm - N/A   Clear
6:53 AM 21.0 °F - 19.0 °F 92% 30.32 in 8.0 mi Calm Calm - N/A   Clear
7:53 AM 21.0 °F - 19.0 °F 92% 30.32 in 6.0 mi Calm Calm - N/A   Clear
8:53 AM 28.0 °F - 25.0 °F 88% 30.33 in 8.0 mi Calm Calm - N/A   Clear
9:53 AM 37.0 °F - 28.9 °F 73% 30.33 in 10.0 mi Calm Calm - N/A   Clear
10:53 AM 41.0 °F 34.7 °F 28.0 °F 60% 30.34 in 10.0 mi West 10.4 mph - N/A   Clear
11:53 AM 42.1 °F 37.1 °F 26.1 °F 53% 30.35 in 10.0 mi West 8.1 mph - N/A   Clear
12:53 PM 45.0 °F 39.7 °F 21.0 °F 39% 30.33 in 10.0 mi WSW 10.4 mph - N/A   Clear
1:53 PM 45.0 °F 39.7 °F 19.9 °F 37% 30.32 in 10.0 mi West 10.4 mph - N/A   Clear
2:53 PM 46.0 °F 40.6 °F 19.0 °F 34% 30.31 in 10.0 mi West 11.5 mph - N/A   Clear
3:53 PM 45.0 °F 39.7 °F 19.9 °F 37% 30.30 in 10.0 mi West 10.4 mph - N/A   Clear
4:53 PM 45.0 °F 41.2 °F 21.0 °F 39% 30.29 in 10.0 mi West 6.9 mph - N/A   Clear
5:53 PM 45.0 °F 41.2 °F 17.1 °F 33% 30.27 in 10.0 mi NNW 6.9 mph - N/A   Clear
6:53 PM 45.0 °F 43.5 °F 16.0 °F 31% 30.27 in 10.0 mi NW 3.5 mph - N/A   Clear
7:53 PM 42.1 °F - 16.0 °F 35% 30.27 in 10.0 mi Calm Calm - N/A   Clear
8:53 PM 36.0 °F - 19.0 °F 50% 30.26 in 10.0 mi Calm Calm - N/A   Clear
9:53 PM 32.0 °F - 21.0 °F 64% 30.27 in 10.0 mi Calm Calm - N/A   Clear
10:53 PM 28.9 °F - 21.0 °F 72% 30.27 in 10.0 mi Calm Calm - N/A   Clear
11:53 PM 28.0 °F - 21.0 °F 75% 30.27 in 10.0 mi Calm Calm - N/A   Clear